Weather History for Fayetteville, AR

Change the Weather History Date:

Saturday, January 5, 2013

  Actual Average Record
Temperature  
Mean Temperature 32 °F 35 °F  
Max Temperature 42 °F 46 °F 71 °F (1956)
Min Temperature 22 °F 25 °F -3 °F (1972)
Degree Days  
Heating Degree Days 33 30  
Month to date heating degree days 172 150  
Since 1 July heating degree days 1690 1833  
Moisture  
Dew Point 28 °F    
Average Humidity 81    
Maximum Humidity 100    
Minimum Humidity 62    
Precipitation  
Precipitation 0.00 in 0.10 in 0.84 in (2005)
Month to date precipitation 0.01 0.47  
Year to date precipitation 0.01 0.47  
Sea Level Pressure  
Sea Level Pressure 30.29 in    
Wind  
Wind Speed 5 mph (SSW)    
Max Wind Speed 17 mph    
Max Gust Speed 22 mph    
Visibility 10 miles    
Events      
T = Trace of Precipitation, MM = Missing Value Source: NWS Daily Summary

Daily Weather History Graph

Daily Weather History Graph

Search for Another Location

Airport:

Trip Planner

Search our weather history database for the weather conditions in past years. The results will help you decide how hot, cold, wet, or windy it might be!

Date:

Astronomy

Jan. 05, 2013 Rise Set
Actual Time 7:27 AM CST 5:16 PM CST
Civil Twilight 6:59 AM CST 5:45 PM CST
Nautical Twilight 6:27 AM CST 6:17 PM CST
Astronomical Twilight 5:56 AM CST 6:48 PM CST
Moon 12:41 AM CST (1/5) 12:01 PM CST (1/5)
Length of Visible Light 10h 45m
Length of Day
9h 49m
Last Quarter, 44% of the Moon is Illuminated
Jan 5
Last Quarter
Jan 11
New
Jan 18
First Quarter
Jan 26
Full
Feb 3
Last Quarter

Hourly Weather History & Observations

Time (CST) Temp. Windchill Dew Point Humidity Pressure Visibility Wind Dir Wind Speed Gust Speed Precip Events Conditions
12:53 AM 24.1 °F - 21.0 °F 88% 30.35 in 10.0 mi Calm Calm - N/A   Clear
1:53 AM 24.1 °F - 21.0 °F 88% 30.34 in 10.0 mi Calm Calm - N/A   Clear
2:53 AM 27.0 °F 20.5 °F 24.1 °F 89% 30.34 in 10.0 mi South 5.8 mph - N/A   Overcast
3:53 AM 30.0 °F 26.5 °F 25.0 °F 82% 30.34 in 10.0 mi South 3.5 mph - N/A   Overcast
4:53 AM 32.0 °F - 24.8 °F 75% 30.31 in 10.0 mi Calm Calm - N/A   Overcast
5:53 AM 30.9 °F - 27.0 °F 85% 30.33 in 10.0 mi Calm Calm - N/A   Overcast
6:53 AM 32.0 °F - 27.0 °F 82% 30.32 in 10.0 mi Calm Calm - N/A   Overcast
7:53 AM 34.0 °F 28.0 °F 26.1 °F 73% 30.35 in 10.0 mi South 6.9 mph - N/A   Overcast
8:53 AM 36.0 °F - 27.0 °F 70% 30.34 in 10.0 mi Calm Calm - N/A   Overcast
9:53 AM 37.9 °F 32.1 °F 28.9 °F 70% 30.33 in 10.0 mi South 8.1 mph - N/A   Overcast
10:53 AM 39.0 °F 32.3 °F 30.0 °F 70% 30.31 in 10.0 mi South 10.4 mph - N/A   Overcast
11:53 AM 39.9 °F 32.5 °F 30.0 °F 68% 30.27 in 10.0 mi SSW 12.7 mph 19.6 mph N/A   Overcast
12:53 PM 41.0 °F 34.3 °F 30.9 °F 67% 30.24 in 10.0 mi SSW 11.5 mph 17.3 mph N/A   Overcast
1:53 PM 41.0 °F 33.5 °F 30.9 °F 67% 30.22 in 10.0 mi SSW 13.8 mph - N/A   Overcast
2:53 PM 41.0 °F 33.9 °F 30.9 °F 67% 30.23 in 10.0 mi SSW 12.7 mph - N/A   Overcast
3:53 PM 42.1 °F 35.2 °F 30.9 °F 65% 30.21 in 10.0 mi South 12.7 mph 18.4 mph N/A   Overcast
4:53 PM 41.0 °F 37.1 °F 32.0 °F 70% 30.19 in 10.0 mi SSW 5.8 mph - N/A   Overcast
5:53 PM 37.9 °F 35.5 °F 30.9 °F 76% 30.24 in 10.0 mi WSW 3.5 mph - N/A   Mostly Cloudy
6:53 PM 37.0 °F - 30.9 °F 79% 30.25 in 10.0 mi Calm Calm - N/A   Mostly Cloudy
7:53 PM 33.1 °F - 30.0 °F 89% 30.27 in 10.0 mi Calm Calm - N/A   Scattered Clouds
8:53 PM 30.9 °F 25.2 °F 28.9 °F 92% 30.26 in 10.0 mi SSW 5.8 mph - N/A   Clear
9:53 PM 27.0 °F - 26.1 °F 96% 30.26 in 8.0 mi Calm Calm - N/A   Clear
10:53 PM 27.0 °F - 26.1 °F 96% 30.27 in 7.0 mi Calm Calm - N/A   Clear
11:53 PM 26.1 °F 18.4 °F 25.0 °F 96% 30.27 in 7.0 mi SSW 6.9 mph - N/A   Clear